Date String (YYYY-MM-DD hh:mm:ss) UTC,Instrument flags,Ambient pressure (hPa),Sample flow (lpm),Bypass flow (lpm),Sample temperature (°C),Ambient temperature (°C),ASC tube jacket temperature (°C),LED temperature (°C),Box temperature (°C),Sample RH (%),Span deviation,Mass concentration (μg/m³),Mass concentration (μg/m³),Mass concentration (μg/m³)
DateTimeUTC,F1_M11,P_M11,Q1_M11,Q2_M11,T1_M11,T2_M11,T3_M11,T4_M11,T5_M11,U1_M11,ZSPAN_M11,X2_M11,X0_M11,X1_M11
2022-10-16 17:00:00,,0835.3,5.00,0.00,28.6,27.0,00.0,37.4,30.4,16.5,0000.0,0007.16,0010.79,0006.75
2022-10-16 17:01:00,,0835.3,5.00,0.00,28.6,27.1,00.0,37.4,30.4,16.5,0000.0,0007.14,0010.69,0006.73
2022-10-16 17:02:00,,0835.4,5.00,0.00,28.6,27.1,00.0,37.4,30.4,16.4,0000.0,0007.11,0010.57,0006.71
2022-10-16 17:03:00,,0835.3,5.01,0.00,28.6,27.0,00.0,37.4,30.5,16.6,0000.0,0007.08,0010.36,0006.70
2022-10-16 17:04:00,,0835.3,5.00,0.00,28.6,27.0,00.0,37.4,30.5,16.7,-000.0,0007.11,0010.01,0006.72
2022-10-16 17:05:00,,0835.3,4.99,0.00,28.6,27.0,00.0,37.4,30.5,16.7,0000.0,0007.15,0009.99,0006.76
2022-10-16 17:06:00,,0835.2,5.00,0.00,28.6,27.0,00.0,37.4,30.5,16.8,0000.0,0007.19,0009.96,0006.79
2022-10-16 17:07:00,,0835.2,5.00,0.00,28.6,27.1,00.0,37.4,30.5,16.8,0000.0,0007.24,0009.97,0006.83
2022-10-16 17:08:00,,0835.2,5.00,0.00,28.6,27.1,00.0,37.4,30.5,16.7,0000.0,0007.29,0010.24,0006.85
2022-10-16 17:09:00,,0835.2,5.01,0.00,28.6,27.1,00.0,37.4,30.5,16.6,0000.0,0007.35,0011.35,0006.87
2022-10-16 17:10:00,,0835.2,5.00,0.00,28.6,27.1,00.0,37.4,30.5,16.8,0000.0,0007.39,0011.56,0006.90
2022-10-16 17:11:00,,0835.2,5.00,0.00,28.6,27.1,00.0,37.4,30.5,17.1,0000.0,0007.48,0012.81,0006.96
2022-10-16 17:12:00,,0835.3,5.00,0.00,28.6,27.1,00.0,37.4,30.5,17.3,0000.0,0007.53,0012.93,0007.01
2022-10-16 17:13:00,,0835.2,4.98,0.00,28.6,27.1,00.0,37.4,30.5,17.7,0000.0,0007.61,0012.96,0007.09
2022-10-16 17:14:00,,0835.2,5.00,0.00,28.6,27.0,00.0,37.4,30.4,17.7,0000.0,0007.75,0013.16,0007.18
2022-10-16 17:15:00,,0835.2,5.00,0.00,28.6,27.0,00.0,37.4,30.4,17.7,0000.0,0007.83,0013.28,0007.24
2022-10-16 17:16:00,,0835.2,5.00,0.00,28.6,27.0,00.0,37.4,30.4,17.8,0000.0,0007.91,0013.41,0007.29
2022-10-16 17:17:00,,0835.2,5.00,0.00,28.6,27.0,00.0,37.4,30.4,17.9,0000.0,0007.99,0013.52,0007.36
2022-10-16 17:18:00,,0835.2,5.00,0.00,28.6,27.0,00.0,37.4,30.4,17.9,0000.0,0008.08,0013.61,0007.45
2022-10-16 17:19:00,,0835.2,5.00,0.00,28.6,27.0,00.0,37.4,30.4,18.0,0000.0,0008.15,0014.14,0007.54
2022-10-16 17:20:00,,0835.2,5.00,0.00,28.6,26.9,00.0,37.4,30.4,18.0,0000.0,0008.20,0013.14,0007.63
2022-10-16 17:21:00,,0835.2,5.00,0.00,28.6,26.9,00.0,37.4,30.4,18.1,0000.0,0008.30,0013.12,0007.73
2022-10-16 17:22:00,,0835.2,5.00,0.00,28.6,26.9,00.0,37.4,30.4,18.1,0000.0,0008.36,0012.05,0007.80
2022-10-16 17:23:00,,0835.2,4.99,0.00,28.6,26.9,00.0,37.4,30.4,18.2,0000.0,0008.42,0012.01,0007.86
2022-10-16 17:24:00,,0835.2,4.99,0.00,28.6,26.9,00.0,37.4,30.4,18.3,0000.0,0008.43,0012.00,0007.90
2022-10-16 17:25:00,,0835.2,5.01,0.00,28.6,26.9,00.0,37.4,30.4,18.3,0000.0,0008.43,0011.91,0007.92
2022-10-16 17:26:00,,0835.2,5.01,0.00,28.6,27.0,00.0,37.4,30.4,18.3,0000.0,0008.42,0011.85,0007.93
2022-10-16 17:27:00,,0835.2,4.99,0.00,28.6,27.0,00.0,37.4,30.4,18.4,0000.0,0008.42,0011.79,0007.95
2022-10-16 17:28:00,,0835.2,5.00,0.00,28.6,27.0,00.0,37.4,30.4,18.3,0000.0,0008.42,0011.75,0007.97
2022-10-16 17:29:00,,0835.2,5.00,0.00,28.6,27.0,00.0,37.4,30.4,18.3,0000.0,0008.42,0011.83,0007.99
2022-10-16 17:30:00,,0835.2,5.00,0.00,28.6,27.1,00.0,37.4,30.4,18.2,0000.0,0008.45,0011.31,0008.01
2022-10-16 17:31:00,,0835.2,5.00,0.00,28.6,27.1,00.0,37.4,30.4,17.8,0000.0,0008.46,0011.80,0008.00
2022-10-16 17:32:00,,0835.2,4.98,0.00,28.6,27.1,00.0,37.4,30.4,17.4,0000.0,0008.42,0011.73,0007.97
2022-10-16 17:33:00,,0835.2,5.01,0.00,28.6,27.0,00.0,37.4,30.4,17.2,0000.0,0008.37,0011.66,0007.92
2022-10-16 17:34:00,,0835.2,5.00,0.00,28.6,27.0,00.0,37.4,30.4,17.2,0000.0,0008.33,0011.56,0007.88
2022-10-16 17:35:00,,0835.2,5.00,0.00,28.6,27.0,00.0,37.4,30.4,17.3,0000.0,0008.31,0011.57,0007.84
2022-10-16 17:36:00,,0835.2,5.00,0.00,28.6,27.0,00.0,37.4,30.4,17.3,0000.0,0008.28,0011.75,0007.80
2022-10-16 17:37:00,,0835.2,5.00,0.00,28.6,27.0,00.0,37.4,30.4,17.5,0000.0,0008.25,0012.00,0007.77
2022-10-16 17:38:00,,0835.2,5.00,0.00,28.6,27.0,00.0,37.4,30.4,17.6,0000.0,0008.23,0012.04,0007.77
2022-10-16 17:39:00,,0835.2,5.00,0.00,28.6,27.0,00.0,37.4,30.4,17.6,0000.0,0008.24,0012.16,0007.74
2022-10-16 17:40:00,,0835.3,4.98,0.00,28.6,27.0,00.0,37.4,30.4,17.6,0000.0,0008.23,0012.21,0007.71
2022-10-16 17:41:00,,0835.2,5.01,0.00,28.6,27.0,00.0,37.4,30.4,17.9,0000.0,0008.18,0012.14,0007.68
2022-10-16 17:42:00,,0835.2,5.00,0.00,28.6,27.0,00.0,37.4,30.4,17.8,0000.0,0008.15,0011.56,0007.67
2022-10-16 17:43:00,,0835.2,5.00,0.00,28.6,27.0,00.0,37.4,30.4,17.8,0000.0,0008.15,0011.81,0007.68
2022-10-16 17:44:00,,0835.2,5.00,0.00,28.6,27.0,00.0,37.4,30.4,17.7,0000.0,0008.20,0011.95,0007.70
2022-10-16 17:45:00,,0835.2,5.00,0.00,28.5,26.9,00.0,37.3,30.4,17.6,0000.0,0008.26,0012.24,0007.72
2022-10-16 17:46:00,,0835.2,5.00,0.00,28.5,26.8,00.0,37.3,30.4,17.5,0000.0,0008.28,0012.44,0007.75
2022-10-16 17:47:00,,0835.2,5.00,0.00,28.5,26.8,00.0,37.3,30.3,17.4,0000.0,0008.29,0013.13,0007.77
2022-10-16 17:48:00,,0835.2,5.00,0.00,28.5,26.8,00.0,37.3,30.3,17.3,0000.0,0008.28,0012.78,0007.76
2022-10-16 17:49:00,,0835.2,5.00,0.00,28.5,26.9,00.0,37.3,30.3,17.3,0000.0,0008.29,0012.87,0007.74
2022-10-16 17:50:00,,0835.2,5.00,0.00,28.5,26.9,00.0,37.3,30.3,17.3,0000.0,0008.28,0013.28,0007.71
2022-10-16 17:51:00,,0835.2,5.00,0.00,28.5,27.0,00.0,37.3,30.3,17.4,0000.0,0008.27,0013.38,0007.68
2022-10-16 17:52:00,,0835.2,4.99,0.00,28.5,27.0,00.0,37.3,30.3,17.3,0000.0,0008.26,0013.39,0007.66
2022-10-16 17:53:00,,0835.2,5.00,0.00,28.5,26.9,00.0,37.3,30.3,17.3,0000.0,0008.28,0013.44,0007.64
2022-10-16 17:54:00,,0835.2,5.00,0.00,28.5,26.9,00.0,37.3,30.3,17.3,0000.0,0008.26,0013.13,0007.63
2022-10-16 17:55:00,,0835.2,5.01,0.00,28.5,26.9,00.0,37.3,30.3,17.4,0002.0,0008.24,0013.03,0007.63
2022-10-16 17:56:00,,0835.1,5.00,0.00,28.5,26.9,00.0,37.3,30.3,17.2,0001.5,0008.21,0012.91,0007.61
2022-10-16 17:57:00,,0835.1,5.00,0.00,28.5,26.8,00.0,37.3,30.3,17.3,0001.5,0008.19,0012.69,0007.60
2022-10-16 17:58:00,,0835.1,5.00,0.00,28.5,26.8,00.0,37.3,30.3,17.5,0001.6,0008.19,0011.88,0007.59
2022-10-16 17:59:00,,0835.1,4.99,0.00,28.5,26.7,00.0,37.3,30.3,17.5,0001.7,0008.23,0011.92,0007.62
